Probability
35 32 32 39 35 39 35 35 29 32 35 35 42 42 35 32 39 35 32 29 29 26 29 26 26 29 29 23 19 16 16 16 16 10 10 10 13 13 10 6 6 6 10
32 29 29 29 32 29 39 35 26 26 29 29 35 32 32 29 26 35 32 32 26 26 26 26 23 26 26 23 26 26 26 19 13 13 10 13 13 13 13 6 6 6 6
35 29 29 26 26 26 29 29 19 16 23 26 29 26 26 26 19 16 26 26 19 19 23 23 19 23 23 19 19 16 16 16 10 10 10 10 13 13 10 10 6 3 3
29 26 26 23 23 26 23 23 23 23 16 23 26 26 26 26 26 26 26 29 26 23 13 19 23 23 26 23 19 10 10 10 10 10 13 10 10 10 6 3 6 6 0
26 23 19 19 23 23 19 16 16 19 23 23 26 26 26 26 23 23 23 26 23 19 16 16 16 13 16 13 10 10 6 6 10 10 6 6 10 3 3 3 3 0 3
19 19 16 19 23 26 23 16 19 23 23 23 26 26 26 23 23 23 23 26 26 26 16 16 13 13 16 10 10 10 6 6 6 3 3 3 6 3 3 3 3 0 0
16 16 13 19 23 26 26 23 23 19 23 23 23 23 23 23 23 19 16 23 23 26 23 16 16 13 13 13 13 10 10 10 6 3 3 6 6 6 3 3 0 0 0
16 16 13 16 26 26 26 26 23 23 23 23 16 19 19 19 23 19 16 13 19 23 19 19 16 16 19 10 13 13 6 6 6 3 6 6 6 6 3 0 0 0 0
6 16 16 16 19 19 19 23 19 19 19 19 19 16 16 23 23 13 10 13 13 16 23 19 19 16 16 10 10 13 10 10 6 6 3 3 0 0 0 0 0 0 0
13 16 16 13 13 16 16 19 19 19 19 19 13 13 16 19 23 13 6 13 13 13 13 16 13 10 10 6 10 10 13 10 10 3 3 0 0 0 0 0 0 0 0
13 10 10 10 16 19 16 16 16 13 13 13 13 13 13 16 16 13 3 13 13 13 13 13 10 6 6 0 0 10 13 10 10 6 6 0 0 0 0 0 0 0 0
10 10 10 10 10 10 13 13 10 10 10 13 13 13 13 13 16 10 6 0 10 10 13 13 10 6 0 0 0 3 3 3 10 10 6 3 3 0 0 0 0 0 0
10 10 10 6 6 10 10 6 6 10 10 10 13 13 13 13 16 13 6 0 0 6 13 13 10 6 0 0 0 0 0 3 3 3 6 6 3 0 0 0 0 0 0
6 6 6 6 6 6 6 6 6 10 6 6 6 13 13 13 13 13 10 6 0 0 6 6 3 0 0 3 3 0 0 3 3 3 3 3 3 0 0 0 0 0 0
3 6 6 6 6 6 6 6 6 6 6 6 10 10 6 10 10 6 13 10 6 6 6 6 6 0 0 0 0 3 3 3 3 3 3 3 3 3 0 0 0 0 0
3 6 6 6 6 6 10 6 3 6 6 6 6 6 6 6 6 3 0 6 3 3 0 6 6 6 6 6 3 3 3 3 3 3 3 3 3 3 0 0 0 0 0
3 3 3 3 6 6 6 6 6 0 0 0 0 3 3 0 0 0 0 0 0 0 0 6 6 10 10 10 10 10 6 3 3 3 3 3 3 3 3 0 0 0 0
3 0 0 0 3 6 3 6 6 3 3 0 0 0 0 0 0 0 0 0 0 0 0 3 3 6 6 10 10 10 10 6 3 6 3 3 3 3 3 0 0 0 0
0 0 0 0 0 3 6 3 3 3 3 0 0 0 0 0 0 0 0 0 0 0 0 0 3 3 6 6 6 6 6 10 13 13 6 3 3 3 3 3 0 0 0
0 0 0 0 0 0 3 3 3 3 3 0 0 0 0 0 0 0 0 0 0 0 3 3 3 3 3 3 6 3 3 6 13 6 10 3 3 3 3 3 3 0 0
0 0 0 0 0 0 0 3 3 6 3 0 0 0 0 0 0 0 0 0 0 0 0 3 3 0 0 0 3 6 10 10 10 10 6 0 0 3 3 3 3 3 0
0 0 0 0 0 0 0 0 0 0 3 0 0 0 0 0 0 0 0 0 0 0 0 0 0 3 3 6 6 3 6 10 10 10 6 3 0 0 0 0 0 0 0
0 0 0 0 0 0 0 0 0 0 0 3 0 0 0 0 0 0 0 0 0 0 0 0 0 3 6 6 3 3 6 6 6 10 3 3 3 0 0 0 0 0 0
0 0 0 0 0 0 0 0 0 0 0 0 0 0 0 0 0 0 0 0 0 0 0 0 0 0 0 3 3 3 3 6 6 3 3 3 3 0 0 0 0 0 0
3 3 3 3 3 3 3 3 3 0 0 0 0 0 0 0 0 0 0 0 0 0 0 0 0 0 0 0 0 0 0 3 3 0 0 0 0 0 0 0 0 0 0
6 6 6 6 6 3 3 3 3 3 3 0 0 0 0 0 0 0 0 0 0 0 0 0 0 0 0 0 0 0 0 0 0 0 0 0 0 0 0 0 0 0 0
Height
5887 5886 5884 5883 5882 5881 5879 5878 5877 5875 5874 5872 5871 5869 5868 5867 5865 5864 5863 5862 5861 5859 5858 5857 5855 5854 5853 5851 5849 5848 5846 5844 5842 5840 5838 5835 5833 5831 5829 5826 5824 5822 5820
5883 5881 5880 5879 5878 5877 5875 5874 5872 5871 5869 5867 5866 5865 5863 5862 5861 5859 5858 5857 5856 5854 5853 5852 5850 5849 5847 5846 5844 5842 5840 5838 5836 5835 5832 5830 5828 5825 5823 5821 5819 5816 5814
5878 5877 5875 5874 5873 5872 5871 5869 5867 5866 5864 5862 5861 5860 5858 5857 5855 5854 5853 5851 5850 5849 5847 5846 5845 5843 5842 5840 5838 5836 5834 5832 5830 5828 5827 5825 5822 5820 5817 5815 5812 5811 5808
5873 5872 5871 5870 5868 5867 5866 5864 5862 5860 5858 5857 5856 5854 5853 5851 5850 5848 5847 5846 5844 5843 5841 5840 5838 5837 5835 5833 5832 5830 5828 5826 5824 5822 5820 5818 5816 5814 5811 5808 5806 5804 5802
5868 5866 5865 5864 5863 5861 5860 5858 5856 5855 5853 5851 5850 5848 5847 5845 5844 5842 5840 5839 5838 5836 5835 5833 5831 5829 5828 5826 5825 5823 5821 5819 5817 5815 5813 5811 5809 5807 5805 5802 5800 5797 5796
5862 5861 5859 5858 5857 5855 5854 5852 5850 5848 5846 5845 5843 5841 5840 5838 5837 5835 5833 5832 5831 5829 5828 5826 5824 5822 5820 5819 5817 5815 5814 5812 5810 5808 5806 5804 5802 5800 5797 5795 5793 5791 5789
5856 5854 5853 5852 5850 5849 5847 5845 5844 5842 5839 5838 5836 5834 5833 5831 5829 5827 5826 5824 5823 5821 5820 5818 5816 5814 5812 5811 5809 5807 5806 5804 5802 5800 5798 5797 5795 5793 5790 5788 5786 5784 5782
5849 5848 5846 5845 5843 5842 5840 5838 5837 5835 5832 5831 5829 5827 5825 5823 5821 5819 5817 5816 5814 5813 5811 5810 5808 5806 5804 5802 5801 5799 5797 5795 5793 5792 5790 5788 5786 5784 5782 5780 5778 5776 5774
5842 5841 5839 5838 5836 5834 5832 5830 5829 5827 5825 5823 5821 5818 5816 5815 5812 5811 5809 5807 5806 5804 5802 5801 5799 5798 5796 5794 5793 5791 5789 5787 5785 5783 5781 5779 5777 5775 5773 5772 5769 5767 5765
5835 5833 5831 5830 5828 5826 5824 5823 5821 5819 5817 5815 5812 5810 5808 5806 5804 5802 5800 5799 5797 5795 5794 5792 5790 5789 5787 5785 5784 5782 5780 5779 5776 5774 5772 5770 5768 5766 5764 5762 5760 5758 5755
5826 5825 5824 5822 5820 5818 5816 5814 5812 5810 5808 5806 5804 5802 5800 5798 5795 5793 5791 5789 5787 5785 5784 5783 5781 5780 5778 5776 5774 5773 5771 5769 5767 5765 5763 5761 5758 5756 5754 5752 5750 5748 5746
5817 5816 5815 5813 5811 5809 5807 5805 5804 5802 5800 5798 5796 5793 5791 5789 5787 5784 5782 5780 5778 5776 5775 5774 5772 5770 5769 5767 5765 5763 5761 5759 5758 5756 5753 5751 5748 5746 5744 5742 5740 5738 5736
5808 5807 5805 5804 5802 5800 5798 5797 5795 5793 5791 5789 5787 5784 5782 5780 5778 5776 5773 5772 5769 5768 5766 5764 5763 5761 5759 5757 5755 5753 5752 5750 5748 5746 5743 5741 5738 5736 5734 5732 5730 5729 5727
5799 5798 5796 5795 5793 5791 5789 5787 5786 5784 5782 5780 5778 5776 5774 5772 5770 5767 5765 5763 5761 5759 5757 5755 5753 5752 5750 5748 5746 5744 5742 5740 5738 5736 5734 5731 5729 5727 5725 5723 5721 5719 5718
5789 5788 5787 5785 5783 5782 5780 5778 5777 5775 5773 5771 5769 5767 5765 5763 5762 5759 5756 5755 5753 5751 5749 5747 5745 5743 5741 5739 5737 5735 5733 5731 5729 5727 5725 5723 5721 5719 5717 5715 5713 5711 5709
5780 5778 5777 5775 5774 5772 5771 5770 5767 5766 5764 5762 5760 5758 5756 5754 5752 5750 5747 5745 5744 5742 5740 5738 5736 5734 5733 5731 5729 5727 5725 5722 5721 5719 5717 5715 5713 5711 5709 5707 5705 5703 5701
5769 5768 5767 5765 5764 5762 5761 5760 5758 5756 5754 5752 5751 5749 5747 5745 5743 5741 5739 5736 5735 5733 5732 5730 5728 5726 5724 5722 5720 5718 5716 5714 5712 5710 5709 5706 5704 5702 5700 5698 5697 5695 5693
5759 5757 5756 5755 5753 5752 5750 5749 5747 5746 5744 5742 5741 5739 5738 5736 5734 5732 5730 5728 5726 5723 5722 5720 5719 5717 5715 5713 5711 5709 5707 5706 5704 5702 5700 5698 5696 5694 5692 5690 5688 5687 5685
5749 5747 5745 5744 5743 5741 5740 5738 5737 5735 5734 5733 5731 5730 5728 5726 5724 5722 5720 5718 5716 5714 5712 5711 5710 5708 5706 5704 5703 5701 5699 5697 5696 5694 5692 5690 5688 5686 5684 5682 5680 5678 5676
5739 5737 5735 5734 5732 5731 5729 5728 5726 5725 5723 5722 5721 5720 5718 5716 5714 5712 5710 5708 5706 5705 5703 5702 5700 5698 5697 5695 5694 5692 5691 5689 5687 5686 5684 5682 5680 5678 5676 5674 5672 5670 5667
5730 5728 5725 5724 5722 5720 5719 5717 5716 5714 5713 5712 5711 5709 5708 5705 5703 5701 5699 5698 5696 5695 5693 5692 5690 5689 5687 5686 5684 5683 5682 5680 5679 5677 5675 5674 5672 5670 5668 5666 5663 5661 5658
5720 5718 5715 5713 5712 5710 5708 5707 5705 5704 5703 5701 5700 5698 5697 5695 5693 5691 5689 5687 5685 5684 5683 5682 5680 5679 5678 5676 5675 5674 5673 5671 5670 5669 5667 5665 5663 5661 5659 5657 5655 5652 5650
5710 5708 5705 5703 5701 5699 5698 5696 5695 5693 5692 5690 5689 5687 5685 5684 5682 5680 5678 5677 5675 5673 5672 5671 5669 5668 5667 5666 5665 5664 5663 5662 5661 5659 5658 5656 5654 5652 5651 5648 5646 5643 5641
5700 5698 5696 5694 5691 5689 5688 5686 5684 5683 5681 5680 5678 5676 5675 5673 5671 5669 5668 5666 5665 5663 5662 5660 5659 5658 5657 5656 5655 5654 5654 5653 5652 5650 5649 5647 5645 5643 5641 5639 5637 5635 5633
5691 5688 5686 5684 5682 5680 5679 5677 5674 5672 5671 5669 5667 5665 5664 5662 5661 5659 5657 5656 5654 5653 5652 5650 5649 5648 5647 5646 5646 5645 5645 5644 5642 5641 5640 5638 5637 5635 5633 5631 5629 5627 5625
5682 5679 5677 5675 5673 5671 5669 5667 5665 5662 5660 5658 5656 5655 5653 5652 5650 5649 5647 5646 5645 5643 5642 5640 5639 5639 5638 5637 5637 5636 5635 5634 5633 5632 5631 5630 5628 5626 5625 5623 5621 5619 5617
Wind_Speed
13 14 13 12 13 12 13 13 13 13 13 13 14 14 14 14 14 15 15 15 15 15 16 16 16 16 17 18 18 19 19 19 19 19 20 20 19 19 20 20 20 20 20
14 15 14 14 14 14 14 14 14 15 15 15 16 16 16 16 16 16 17 16 17 17 17 18 18 18 18 19 19 20 20 21 20 20 21 22 22 21 21 22 21 21 20
16 16 16 16 16 16 17 17 17 16 17 16 17 17 17 17 17 17 17 17 18 18 18 19 19 19 20 20 20 21 21 21 21 20 21 22 23 23 23 23 22 22 21
17 17 17 17 17 18 18 19 20 20 19 18 18 18 18 18 18 18 18 18 19 19 20 21 21 21 21 21 21 22 22 22 22 22 22 23 24 24 24 23 22 22 22
19 18 17 18 18 19 20 21 21 21 21 20 20 20 21 20 20 19 19 20 21 21 21 22 22 22 22 22 23 23 23 23 23 24 24 24 24 25 24 24 23 22 23
20 20 19 19 19 20 21 22 22 22 22 22 22 21 22 22 22 21 22 22 22 22 23 23 23 23 24 24 23 24 24 24 25 25 25 24 25 25 24 24 24 24 24
21 21 21 21 22 23 22 22 23 23 23 23 23 23 23 23 24 24 24 24 24 24 25 25 25 25 25 25 25 25 25 26 26 26 26 26 26 25 25 25 25 26 25
23 23 23 23 24 24 24 23 23 23 23 23 24 25 25 25 26 26 26 26 26 26 27 27 27 27 26 26 27 27 27 27 27 27 27 27 27 27 26 26 26 27 27
25 25 25 25 25 25 25 24 25 25 25 25 25 25 24 25 26 26 26 27 27 27 27 27 27 27 28 28 28 28 28 28 28 28 28 28 28 28 29 29 29 30 29
27 27 27 27 27 27 27 27 27 26 26 26 27 26 25 25 26 26 27 28 28 29 28 28 28 28 29 29 29 29 29 29 29 29 29 29 30 30 30 31 30 30 30
27 28 28 27 28 28 28 28 28 28 27 27 28 26 26 26 27 27 28 29 29 29 29 29 29 30 30 31 31 31 30 29 29 30 30 30 31 31 31 31 31 31 31
30 29 29 28 28 28 28 28 28 28 27 28 27 27 26 26 26 27 28 28 28 28 28 29 30 30 31 31 32 31 31 30 30 30 30 31 31 31 31 31 31 31 31
32 31 30 30 30 30 29 28 28 28 28 28 28 27 26 25 25 26 26 27 27 28 28 29 30 31 31 32 31 31 31 30 30 30 30 30 30 30 30 29 30 30 30
32 31 31 31 30 30 30 29 29 29 29 28 27 27 26 26 26 26 26 27 28 28 28 29 30 30 30 30 30 30 31 30 30 30 29 29 28 28 28 28 28 28 28
32 32 32 32 32 32 31 31 31 29 29 29 29 29 28 27 27 27 27 27 28 29 29 29 29 29 29 29 30 30 30 30 29 28 28 28 27 27 27 26 26 27 26
33 32 32 32 32 32 32 32 32 31 31 30 31 30 29 28 28 28 28 29 29 29 29 28 28 29 29 29 30 30 30 30 28 28 28 27 27 27 26 26 26 26 26
33 33 32 33 33 33 33 33 32 32 32 31 30 30 29 28 28 29 29 28 29 29 29 28 28 28 28 28 28 29 29 29 28 27 27 27 26 27 26 26 26 26 26
33 32 33 33 33 34 33 32 32 31 30 30 30 30 29 29 29 29 30 30 30 31 30 29 29 29 28 28 28 28 28 28 27 26 27 27 27 27 27 27 26 26 26
33 33 32 32 32 33 33 32 31 31 31 31 30 30 30 30 31 31 31 31 31 31 30 30 29 29 29 29 28 28 28 28 27 28 27 27 27 28 28 27 26 26 25
32 32 32 31 32 32 32 32 32 32 32 31 31 31 32 32 32 32 32 32 31 31 30 30 30 30 30 30 29 28 28 28 28 28 28 27 28 28 28 28 27 26 26
31 31 32 32 31 32 32 32 32 32 32 32 31 32 32 32 33 33 33 32 32 31 30 30 30 30 30 30 29 29 29 28 29 29 28 28 28 28 28 28 28 28 27
31 31 30 31 31 32 33 33 33 33 33 32 32 33 32 32 33 33 33 32 32 31 31 31 30 30 29 29 29 30 30 30 29 29 28 28 28 28 28 28 28 28 27
30 31 30 31 31 31 31 32 32 32 32 33 33 33 32 32 32 31 31 31 31 31 31 31 30 30 30 30 30 30 30 30 29 29 28 29 29 29 29 28 28 27 25
30 30 30 30 30 29 29 29 30 31 31 32 31 31 31 31 31 30 30 29 30 30 30 29 29 29 29 28 28 28 29 29 29 28 28 28 28 29 29 27 26 26 25
29 29 29 29 28 29 29 29 30 30 30 31 31 30 30 30 30 30 29 29 29 29 29 29 29 28 28 27 27 27 27 28 28 28 27 27 27 27 26 25 25 25 25
28 29 28 28 28 29 29 29 29 29 29 29 29 30 29 29 29 28 28 28 28 28 29 29 29 28 27 27 26 27 27 27 28 28 28 27 26 25 24 24 24 25 25
Wind_Direction
287 287 284 285 286 287 286 286 287 288 285 287 290 292 292 291 291 291 289 289 287 288 290 291 293 292 290 294 296 298 300 302 299 297 297 297 299 299 299 298 298 297 296
287 288 282 285 285 286 287 289 288 289 286 285 287 287 289 289 290 289 288 287 286 287 288 288 288 287 289 292 294 295 296 298 300 299 296 297 298 297 298 297 296 296 296
286 287 286 287 286 286 289 288 288 287 287 287 287 287 289 291 290 290 289 288 287 287 287 287 288 289 290 290 292 293 294 297 297 298 297 299 300 299 297 296 295 293 293
285 286 287 286 287 289 291 291 292 288 285 288 288 289 289 290 290 289 288 288 287 287 287 287 287 288 289 289 289 290 292 293 294 295 298 298 298 300 299 297 296 295 294
287 288 286 283 285 287 288 290 292 292 288 285 286 286 287 288 290 289 288 288 287 286 286 286 286 286 286 286 287 288 289 291 291 292 294 296 297 298 298 296 296 295 294
289 287 285 286 287 288 288 289 291 291 289 284 283 283 284 286 288 288 287 287 286 286 286 286 287 287 287 286 286 287 288 289 290 290 292 294 295 296 295 295 294 293 293
290 290 291 289 289 289 289 287 289 290 289 287 285 283 283 284 286 286 286 285 284 285 285 286 286 287 287 287 287 287 287 288 288 289 289 291 292 293 292 293 293 294 293
287 288 288 289 288 287 289 289 288 289 290 290 288 285 284 284 284 284 284 283 283 283 283 283 284 285 286 287 287 288 288 288 288 288 289 289 289 291 292 292 292 294 294
285 286 286 287 287 287 290 290 289 288 287 287 289 287 285 285 285 285 285 284 284 283 282 283 284 285 285 286 287 288 287 287 287 287 286 286 287 288 290 291 292 293 293
284 286 287 288 288 287 288 288 288 289 287 287 289 288 284 285 286 285 285 284 283 282 282 282 282 283 284 286 286 286 287 287 287 287 286 286 286 287 288 290 291 291 291
284 286 286 286 289 289 289 287 287 287 286 286 288 289 287 285 285 286 286 284 283 281 280 280 281 283 284 286 286 286 286 286 286 286 286 286 285 286 286 287 288 289 290
283 284 284 285 287 288 288 287 286 286 284 286 287 288 287 285 284 284 284 284 282 281 280 281 281 282 283 284 285 286 286 286 286 286 286 286 287 287 286 286 287 289 289
284 285 285 284 286 287 287 286 286 286 285 285 286 287 288 289 288 287 287 287 285 283 282 282 283 283 283 284 285 286 286 286 285 286 287 287 287 287 287 287 287 287 288
282 282 281 281 283 285 287 288 287 285 284 284 286 290 290 290 289 288 289 289 288 286 285 285 285 285 285 284 284 286 287 287 286 287 287 287 287 287 288 287 287 287 287
280 281 280 279 281 283 285 288 287 284 284 283 286 289 290 290 289 287 288 288 288 288 287 288 287 287 286 285 285 285 286 287 288 288 288 288 287 287 287 288 288 288 290
281 280 279 279 280 282 283 284 285 284 284 285 287 288 288 287 285 285 286 285 286 287 287 287 287 287 286 285 284 285 286 287 287 287 288 288 287 287 286 287 289 289 290
280 280 280 281 281 281 282 283 283 283 284 284 285 286 286 285 284 284 285 285 286 286 286 287 287 288 287 285 286 286 286 287 287 288 287 287 288 288 288 287 288 289 291
282 282 282 281 281 280 281 283 283 283 283 284 285 286 287 286 284 283 283 284 287 289 286 286 286 286 287 286 285 286 286 287 287 288 287 287 287 288 289 288 288 289 291
285 285 285 283 282 281 281 282 283 283 283 283 285 285 285 286 286 284 284 286 287 287 286 286 285 284 284 284 284 284 285 286 286 287 286 285 285 286 289 288 288 289 291
285 285 286 283 282 282 282 282 283 283 283 282 283 284 285 285 286 286 285 285 285 284 283 282 282 280 280 281 281 282 282 283 285 285 285 284 285 286 288 289 289 289 290
287 286 285 283 282 282 282 282 283 283 283 283 282 284 285 286 285 286 285 284 284 284 282 281 281 280 279 278 278 280 281 280 283 285 285 285 285 286 288 288 290 290 289
286 285 284 283 284 284 284 283 282 282 282 282 283 283 284 285 285 286 286 285 283 281 281 282 282 281 279 277 277 278 279 279 280 282 283 283 284 286 287 288 290 290 289
286 285 284 284 284 285 285 284 283 282 282 282 282 282 282 283 284 285 285 283 282 280 280 281 280 279 278 277 278 279 279 279 281 282 283 285 285 285 286 287 289 289 288
290 289 287 287 287 287 288 287 286 284 284 285 286 285 284 284 284 284 284 283 282 279 277 279 280 279 278 278 279 281 281 282 283 283 283 283 284 285 285 286 288 289 288
292 291 289 289 289 289 289 288 287 287 286 286 286 286 286 285 284 283 282 282 281 279 278 279 279 279 279 278 279 281 281 282 282 281 281 281 282 284 285 285 287 288 289
294 293 292 290 289 290 290 290 289 288 288 287 287 285 284 283 283 282 282 282 281 279 279 279 279 278 277 277 277 279 280 282 282 281 280 280 282 283 285 286 287 287 289